Location: Meeteetse
(44.0232°N, 108.9875°W)
Time: 04:35:58
(UTC-06:00)

IGS 1A - Visible Passes

Search period start: 18 April 2014 00:00
Search period end: 28 April 2014 00:00
Orbit: 430 x 433 km, 97.3° (Epoch: 09 September)

Date Brightness Start Highest point End Pass type
(mag) Time Alt. Az. Time Alt. Az. Time Alt. Az.
19 Apr 5.1 23:27:29 10° N 23:27:29 10° N 23:27:32 10° N visible
21 Apr 4.9 23:25:27 12° N 23:25:27 12° N 23:25:40 10° N visible
23 Apr 4.8 23:23:17 13° N 23:23:17 13° N 23:23:40 10° N visible
25 Apr 5.2 00:08:35 11° NNW 00:08:35 11° NNW 00:08:44 10° NNW visible
25 Apr 4.6 23:21:01 14° NNE 23:21:01 14° NNE 23:21:33 10° N visible
27 Apr 5.1 00:06:15 13° NNW 00:06:15 13° NNW 00:06:37 10° NNW visible
27 Apr 4.5 23:18:38 15° NNE 23:18:38 15° NNE 23:19:19 10° N visible
